This demonstration page uses our WeatherBlox Daily Observations layout. Learn more.

41.55636, -103.73856

Hourly Observations for May 2, 2016

Temp ( °F °C ) Dew Point ( °F °C ) Humidity (%) Winds ( mph kmh ) Pressure ( in mb ) Visibility ( mi km ) Precip ( " mm )
12:53 am 00:53 Clear 34 1.1 29 -1.7 82 82 NNW 8 13 30.27 1025 10 16.0934 0 0
1:53 am 01:53 Clear 34 1.1 28 -2.2 79 79 NNW 8 13 30.27 1025 10 16.0934 0 0
2:53 am 02:53 Clear 33 0.6 28 -2.2 82 82 NW 9 15 30.25 1024 10 16.0934 0 0
3:53 am 03:53 Clear 32 0 28 -2.2 85 85 NW 9 15 30.25 1024 10 16.0934 0 0
4:53 am 04:53 Clear 32 0 27 -2.8 82 82 NW 9 15 30.24 1024 10 16.0934 0 0
5:53 am 05:53 Sunny 31 -0.6 27 -2.8 85 85 NW 8 13 30.24 1024 10 16.0934 0 0
6:53 am 06:53 Sunny 33 0.6 28 -2.2 82 82 NW 8 13 30.24 1024 10 16.0934 0 0
7:53 am 07:53 Sunny 38 3.3 30 -1.1 73 73 WNW 10 17 30.24 1024 10 16.0934 0 0
8:53 am 08:53 Sunny 44 6.7 30 -1.1 58 58 W 12 19 30.22 1023 10 16.0934 0 0
9:53 am 09:53 Sunny 49 9.4 33 0.6 55 55 WNW 12 19 30.2 1023 10 16.0934 0 0
10:53 am 10:53 Sunny 55 12.8 35 1.7 47 47 W 12 19 30.18 1022 10 16.0934 0 0
11:53 am 11:53 Sunny 57 13.9 30 -1.1 36 36 WNW 12 19 30.16 1021 10 16.0934 0 0
12:53 pm 12:53 Sunny 59 15 32 0 36 36 W 15 24 30.12 1020 10 16.0934 0 0
1:53 pm 13:53 Sunny 61 16.1 30 -1.1 31 31 W 13 20 30.09 1019 10 16.0934 0 0
2:53 pm 14:53 Sunny 62 16.7 31 -0.6 31 31 W 14 22 30.06 1018 10 16.0934 0 0
3:53 pm 15:53 Mostly Cloudy 64 17.8 33 0.6 32 32 WSW 16 26 30.02 1017 7 11.26538 0 0
4:51 pm 16:51 Mostly Cloudy 64 18 28 -2 26 26 NNW 21 33 29.88 1012 10 16.0934 0 0
4:53 pm 16:53 Mostly Cloudy 66 18.9 29 -1.7 25 25 NNW 21 33 29.99 1016 10 16.0934 0 0
5:00 pm 17:00 Mostly Cloudy 64 18 28 -2 26 26 NW 21 33 29.83 1010 10 16.0934 0 0
5:53 pm 17:53 Cloudy 64 17.8 30 -1.1 28 28 NNW 18 30 29.99 1016 10 16.0934 0 0
6:53 pm 18:53 Cloudy 61 16.1 31 -0.6 32 32 NNW 13 20 30 1016 10 16.0934 0 0
7:53 pm 19:53 Mostly Sunny 57 13.9 31 -0.6 37 37 NNW 17 28 30 1016 10 16.0934 0 0
8:53 pm 20:53 Clear 51 10.6 33 0.6 50 50 N 10 17 30.03 1017 10 16.0934 0 0
9:53 pm 21:53 Clear 44 6.7 35 1.7 71 71 N 7 11 30.05 1018 10 16.0934 0 0
10:53 pm 22:53 Cloudy with Light Rain 48 8.9 39 3.9 71 71 NNE 12 19 30.04 1017 10 16.0934 0 0.0254
11:53 pm 23:53 Mostly Cloudy 46 7.8 39 3.9 77 77 SSW 5 7 30.07 1018 10 16.0934 0 0.0254

Powered by AerisWeather